Weather History for Central Park, NY

Change the Weather History Date:

Friday, February 1, 2013

  Actual Average Record
Temperature  
Mean Temperature 28 °F 33 °F  
Max Temperature 31 °F 39 °F 67 °F (1989)
Min Temperature 24 °F 27 °F -2 °F (1920)
Degree Days  
Heating Degree Days 37 32  
Month to date heating degree days 37 32  
Since 1 July heating degree days 2546 2721  
Cooling Degree Days 0 0  
Month to date cooling degree days 0 0  
Year to date cooling degree days 0 0  
Moisture  
Dew Point 9 °F    
Average Humidity 46    
Maximum Humidity 60    
Minimum Humidity 31    
Precipitation  
Precipitation 0.00 in 0.11 in 2.12 in (1915)
Month to date precipitation 0.00 0.11  
Year to date precipitation 2.76 3.76  
Snow  
Snow 0.00 in 0.30 in 9.80 in (1934)
Month to date snowfall 0.0 0.3  
Since 1 July snowfall 6.6 12.4  
Snow Depth 0.00 in    
Sea Level Pressure  
Sea Level Pressure 29.95 in    
Wind  
Wind Speed 9 mph (WNW)    
Max Wind Speed 15 mph    
Max Gust Speed 32 mph    
Visibility 10 miles    
Events      
T = Trace of Precipitation, MM = Missing Value Source: NWS Daily Summary

Daily Weather History Graph

Daily Weather History Graph

Search for Another Location

Airport:

Trip Planner

Search our weather history database for the weather conditions in past years. The results will help you decide how hot, cold, wet, or windy it might be!

Date:

Astronomy

Feb. 01, 2013 Rise Set
Actual Time 7:05 AM EST 5:13 PM EST
Civil Twilight 6:36 AM EST 5:42 PM EST
Nautical Twilight 6:04 AM EST 6:15 PM EST
Astronomical Twilight 5:31 AM EST 6:47 PM EST
Moon 11:20 PM EST 9:35 AM EST
Length of Visible Light 11h 05m
Length of Day
10h 07m
Waning Gibbous, 70% of the Moon is Illuminated
Feb 1
Waning Gibbous
Feb 3
Last Quarter
Feb 10
New
Feb 17
First Quarter
Feb 25
Full

Hourly Weather History & Observations

Time (EST) Temp. Windchill Dew Point Humidity Pressure Visibility Wind Dir Wind Speed Gust Speed Precip Events Conditions
12:51 AM 28.9 °F 18.6 °F 10.0 °F 45% 29.80 in 10.0 mi WSW 12.7 mph 24.2 mph N/A   Clear
1:51 AM 28.9 °F 22.8 °F 10.9 °F 47% 29.81 in 10.0 mi Variable 5.8 mph 19.6 mph N/A   Clear
2:51 AM 28.9 °F - 10.9 °F 47% 29.81 in 10.0 mi Calm Calm - N/A   Partly Cloudy
3:51 AM 28.0 °F 21.7 °F 10.9 °F 49% 29.80 in 10.0 mi Variable 5.8 mph 17.3 mph N/A   Clear
4:51 AM 28.9 °F 21.1 °F 10.0 °F 45% 29.81 in 10.0 mi WSW 8.1 mph 29.9 mph N/A   Clear
5:51 AM 28.0 °F - 12.0 °F 51% 29.82 in 10.0 mi North - - N/A   Mostly Cloudy
6:51 AM 28.9 °F 21.1 °F 10.9 °F 47% 29.84 in 10.0 mi West 8.1 mph 19.6 mph N/A   Scattered Clouds
7:51 AM 28.9 °F 20.4 °F 10.9 °F 47% 29.85 in 10.0 mi WNW 9.2 mph 20.7 mph N/A   Mostly Cloudy
8:51 AM 28.9 °F 19.8 °F 10.9 °F 47% 29.86 in 10.0 mi West 10.4 mph 16.1 mph N/A   Overcast
9:51 AM 28.9 °F 21.9 °F 8.1 °F 41% 29.87 in 10.0 mi WNW 6.9 mph - N/A   Overcast
10:51 AM 28.9 °F 19.8 °F 7.0 °F 40% 29.88 in 10.0 mi NW 10.4 mph 20.7 mph N/A   Overcast
11:51 AM 30.0 °F 20.5 °F 3.9 °F 33% 29.86 in 10.0 mi WNW 11.5 mph 24.2 mph N/A   Mostly Cloudy
12:51 PM 30.0 °F - 3.9 °F 33% 29.87 in 10.0 mi North - - N/A   Mostly Cloudy
1:51 PM 30.0 °F 19.1 °F 5.0 °F 35% 29.90 in 10.0 mi WNW 15.0 mph 32.2 mph N/A   Mostly Cloudy
2:51 PM 28.9 °F 20.4 °F 7.0 °F 40% 29.93 in 10.0 mi NW 9.2 mph 23.0 mph N/A   Mostly Cloudy
3:51 PM 28.9 °F - 5.0 °F 36% 29.96 in 10.0 mi North - - N/A   Partly Cloudy
4:51 PM 28.9 °F 21.9 °F 8.1 °F 41% 30.01 in 10.0 mi WNW 6.9 mph 16.1 mph N/A   Clear
5:51 PM 27.0 °F 16.7 °F 12.0 °F 53% 30.06 in 10.0 mi WNW 11.5 mph 20.7 mph N/A   Scattered Clouds
6:51 PM 26.1 °F 18.4 °F 12.0 °F 55% 30.10 in 10.0 mi Variable 6.9 mph - N/A   Partly Cloudy
7:51 PM 26.1 °F - 10.9 °F 53% 30.14 in 10.0 mi North - - N/A   Clear
8:51 PM 26.1 °F 20.5 °F 10.0 °F 51% 30.16 in 10.0 mi Variable 4.6 mph 17.3 mph N/A   Mostly Cloudy
9:51 PM 25.0 °F 16.3 °F 12.9 °F 60% 30.18 in 10.0 mi West 8.1 mph - N/A   Clear
10:51 PM 24.1 °F 12.0 °F 10.9 °F 57% 30.21 in 10.0 mi WNW 13.8 mph 21.9 mph N/A   Clear
11:51 PM 24.1 °F 14.4 °F 9.0 °F 53% 30.23 in 10.0 mi West 9.2 mph 19.6 mph N/A   Clear